User: anonymous   Login
Location: Silent Lake
(44.9206°N, 78.0708°W)
Time: 07:05:07
(UTC-05:00)
Language:

Terra - Orbit

View from above orbital plane
View from above orbital plane
View from above satellite
View from above satellite

Ground track
Ground track

The orbit data is extracted from the following two-line orbital elements,

1 25994U 99068A   19021.20917999 -.00000107 +00000-0 -13704-4 0  9999
2 25994 098.2094 097.9071 0001558 109.5391 250.5979 14.57115411015578
Epoch (UTC): 21 January 2019 05:01:13
Eccentricity: 0.0001558
inclination: 98.2094°
perigee height: 701 km
apogee height: 703 km
right ascension of ascending node: 97.9071°
argument of perigee: 109.5391°
revolutions per day: 14.57115411
mean anomaly at epoch: 250.5979°
orbit number at epoch: 1557

The dashed part of the orbit path shows where the satellite is in the earth's shadow,  

DLR